RYR609Z LIMJ-LROP

Flight info

Callsign RYR609Z
Flight time 1h 43m
Altitude 36000
Route ITCAP DCT ABMOG DCT LABIN DCT GISER DCT BIDVU DCT DIRER DCT TOSVI
Aircraft B738/M-SDE2E3FGHIRWXY/LB1

Departure

Time 2026-05-04 14:27
Airport Genoa Cristoforo Colombo Airport (LIMJ)

Arrival

Time 2026-05-04 16:11
Airport Bucharest Henri Coandă International Airport (LROP)
Time Latitude Longitude Altitude Speed Heading
2026-05-04 14:08 44.41434 8.84949 30 ft 0 kts 61°
2026-05-04 14:21 44.41429 8.84938 31 ft 2 kts 61°
2026-05-04 14:21 44.41422 8.84919 30 ft 2 kts 62°
2026-05-04 14:21 44.41415 8.84901 30 ft 2 kts 62°
2026-05-04 14:22 44.41407 8.84882 30 ft 2 kts 62°
2026-05-04 14:22 44.41401 8.84864 30 ft 2 kts 62°
2026-05-04 14:22 44.41393 8.84845 29 ft 2 kts 62°
2026-05-04 14:22 44.41386 8.84827 29 ft 2 kts 61°
2026-05-04 14:23 44.41383 8.84794 28 ft 1 kts 110°
2026-05-04 14:23 44.41386 8.84786 28 ft 0 kts 111°
2026-05-04 14:25 44.41384 8.84793 28 ft 3 kts 111°
2026-05-04 14:25 44.41329 8.85061 27 ft 22 kts 103°
2026-05-04 14:25 44.41291 8.85228 24 ft 17 kts 134°
2026-05-04 14:26 44.41180 8.85260 23 ft 16 kts 195°
2026-05-04 14:26 44.41079 8.85213 23 ft 14 kts 211°
2026-05-04 14:26 44.41022 8.85106 22 ft 13 kts 258°
2026-05-04 14:26 44.41060 8.84884 23 ft 52 kts 284°
2026-05-04 14:27 44.41221 8.84064 19 ft 119 kts 285°
2026-05-04 14:27 44.41487 8.82697 40 ft 169 kts 283°
2026-05-04 14:27 44.41806 8.81138 663 ft 170 kts 284°
2026-05-04 14:27 44.42080 8.79496 1220 ft 177 kts 270°
2026-05-04 14:28 44.41775 8.77828 1649 ft 188 kts 237°
2026-05-04 14:28 44.40828 8.76503 2045 ft 202 kts 205°
2026-05-04 14:28 44.39435 8.76105 2497 ft 214 kts 171°
2026-05-04 14:28 44.38039 8.76849 3008 ft 225 kts 140°
2026-05-04 14:29 44.36800 8.80780 4433 ft 236 kts 87°
2026-05-04 14:29 44.37557 8.85436 5686 ft 262 kts 77°
2026-05-04 14:30 44.38005 8.87898 6491 ft 266 kts 78°
2026-05-04 14:30 44.38430 8.90400 7302 ft 270 kts 79°
2026-05-04 14:30 44.39274 8.95594 8806 ft 282 kts 79°
2026-05-04 14:31 44.39708 8.98283 9547 ft 288 kts 80°
2026-05-04 14:31 44.40612 9.03863 10751 ft 308 kts 79°
2026-05-04 14:32 44.41600 9.09989 11582 ft 340 kts 79°
2026-05-04 14:32 44.42130 9.13277 11940 ft 357 kts 79°
2026-05-04 14:32 44.42693 9.16774 12309 ft 374 kts 79°
2026-05-04 14:32 44.43269 9.20355 12696 ft 389 kts 79°
2026-05-04 14:33 44.43870 9.24101 13020 ft 404 kts 79°
2026-05-04 14:33 44.44493 9.27996 13410 ft 418 kts 79°
2026-05-04 14:33 44.45139 9.32039 14041 ft 424 kts 79°
2026-05-04 14:33 44.45778 9.36044 14709 ft 428 kts 79°
2026-05-04 14:34 44.46431 9.40146 15383 ft 433 kts 78°
2026-05-04 14:34 44.47078 9.44221 16014 ft 437 kts 78°
2026-05-04 14:34 44.47741 9.48408 16656 ft 441 kts 78°
2026-05-04 14:34 44.48410 9.52640 17222 ft 447 kts 78°
2026-05-04 14:35 44.49083 9.56906 17820 ft 451 kts 78°
2026-05-04 14:35 44.49760 9.61216 18398 ft 455 kts 78°
2026-05-04 14:35 44.50438 9.65533 18925 ft 460 kts 78°
2026-05-04 14:35 44.51124 9.69916 19522 ft 463 kts 78°
2026-05-04 14:36 44.51820 9.74370 20086 ft 467 kts 78°
2026-05-04 14:36 44.52508 9.78791 20685 ft 470 kts 78°
2026-05-04 14:36 44.53212 9.83318 21216 ft 475 kts 79°
2026-05-04 14:36 44.53912 9.87841 21720 ft 479 kts 79°
2026-05-04 14:37 44.54615 9.92391 22283 ft 482 kts 79°
2026-05-04 14:37 44.55328 9.97015 22758 ft 486 kts 79°
2026-05-04 14:37 44.56035 10.01620 23269 ft 489 kts 78°
2026-05-04 14:37 44.56747 10.06265 23745 ft 493 kts 78°
2026-05-04 14:38 44.57466 10.10981 24217 ft 497 kts 78°
2026-05-04 14:38 44.58189 10.15739 24692 ft 500 kts 78°
2026-05-04 14:38 44.58922 10.20575 25164 ft 504 kts 78°
2026-05-04 14:38 44.59643 10.25353 25646 ft 506 kts 78°
2026-05-04 14:39 44.60365 10.30149 26365 ft 503 kts 78°
2026-05-04 14:39 44.61089 10.34979 27093 ft 500 kts 78°
2026-05-04 14:39 44.61798 10.39733 27796 ft 497 kts 78°
2026-05-04 14:40 44.63210 10.49227 28839 ft 498 kts 78°
2026-05-04 14:40 44.63914 10.53986 29494 ft 495 kts 78°
2026-05-04 14:40 44.64604 10.58667 30052 ft 494 kts 78°
2026-05-04 14:40 44.65298 10.63396 30537 ft 494 kts 78°
2026-05-04 14:41 44.65993 10.68145 30950 ft 495 kts 79°
2026-05-04 14:41 44.66673 10.72813 31454 ft 494 kts 79°
2026-05-04 14:41 44.68001 10.81956 32318 ft 494 kts 78°
2026-05-04 14:42 44.69359 10.91349 33033 ft 496 kts 78°
2026-05-04 14:42 44.70045 10.96112 33437 ft 496 kts 78°
2026-05-04 14:42 44.70727 11.00856 33842 ft 496 kts 78°
2026-05-04 14:43 44.71405 11.05584 34266 ft 495 kts 78°
2026-05-04 14:43 44.72079 11.10302 34692 ft 494 kts 78°
2026-05-04 14:43 44.72758 11.15067 35132 ft 492 kts 78°
2026-05-04 14:43 44.73420 11.19729 35535 ft 492 kts 78°
2026-05-04 14:44 44.74089 11.24460 35961 ft 490 kts 78°
2026-05-04 14:44 44.74755 11.29181 36038 ft 494 kts 78°
2026-05-04 14:44 44.76084 11.38637 36035 ft 496 kts 78°
2026-05-04 14:45 44.77408 11.48132 36036 ft 494 kts 78°
2026-05-04 14:45 44.78712 11.57539 36036 ft 494 kts 78°
2026-05-04 14:46 44.79985 11.66778 36033 ft 493 kts 79°
2026-05-04 14:46 44.81302 11.76399 36030 ft 494 kts 79°
2026-05-04 14:47 44.81947 11.81129 35877 ft 492 kts 79°
2026-05-04 14:47 44.82591 11.85877 36008 ft 494 kts 79°
2026-05-04 14:47 44.83855 11.95234 36032 ft 495 kts 79°
2026-05-04 14:48 44.85117 12.04631 36034 ft 491 kts 79°
2026-05-04 14:48 44.86379 12.14098 36034 ft 491 kts 79°
2026-05-04 14:49 44.87601 12.23326 36038 ft 489 kts 79°
2026-05-04 14:49 44.88842 12.32752 36038 ft 490 kts 79°
2026-05-04 14:50 44.90074 12.42178 36039 ft 489 kts 79°
2026-05-04 14:50 44.91296 12.51591 36042 ft 488 kts 79°
2026-05-04 14:51 44.92506 12.60963 36034 ft 486 kts 79°
2026-05-04 14:51 44.93707 12.70325 36045 ft 486 kts 80°
2026-05-04 14:52 44.94901 12.79691 36045 ft 484 kts 80°
2026-05-04 14:52 44.96084 12.89043 36048 ft 484 kts 80°
2026-05-04 14:53 44.97258 12.98390 36055 ft 484 kts 80°
2026-05-04 14:53 44.98433 13.07727 36054 ft 483 kts 80°
2026-05-04 14:54 44.99175 13.17207 36162 ft 487 kts 87°
2026-05-04 14:54 44.99327 13.21871 36387 ft 486 kts 88°
2026-05-04 14:54 44.99445 13.26671 36654 ft 485 kts 88°
2026-05-04 14:55 44.99553 13.31369 36962 ft 485 kts 88°
2026-05-04 14:55 44.99666 13.36113 37062 ft 487 kts 88°
2026-05-04 14:55 44.99918 13.45650 37066 ft 483 kts 87°
2026-05-04 14:56 45.00197 13.55100 37068 ft 483 kts 87°
2026-05-04 14:56 45.00491 13.64614 37065 ft 484 kts 86°
2026-05-04 14:57 45.00785 13.74043 37078 ft 483 kts 87°
2026-05-04 14:57 45.01076 13.83526 37079 ft 485 kts 87°
2026-05-04 14:58 45.01360 13.92998 37090 ft 483 kts 87°
2026-05-04 14:58 45.01592 14.00936 37087 ft 482 kts 87°
2026-05-04 14:59 45.01903 14.11896 37086 ft 482 kts 87°
2026-05-04 15:00 45.02285 14.26164 37076 ft 482 kts 87°
2026-05-04 15:00 45.02527 14.35643 37079 ft 482 kts 87°
2026-05-04 15:01 45.02878 14.49821 37078 ft 484 kts 87°
2026-05-04 15:01 45.03102 14.59287 37081 ft 485 kts 87°
2026-05-04 15:02 45.03321 14.68747 37095 ft 485 kts 88°
2026-05-04 15:02 45.03534 14.78294 37097 ft 485 kts 88°
2026-05-04 15:03 45.03739 14.87826 37104 ft 486 kts 88°
2026-05-04 15:03 45.03934 14.97354 37119 ft 486 kts 88°
2026-05-04 15:04 45.04119 15.06719 37115 ft 486 kts 88°
2026-05-04 15:04 45.04301 15.16318 37114 ft 486 kts 88°
2026-05-04 15:05 45.04473 15.25818 37104 ft 486 kts 88°
2026-05-04 15:05 45.04636 15.35207 37092 ft 485 kts 87°
2026-05-04 15:06 45.04791 15.44596 37087 ft 484 kts 87°
2026-05-04 15:07 45.05003 15.58456 37063 ft 484 kts 87°
2026-05-04 15:07 45.05139 15.67940 37051 ft 482 kts 88°
2026-05-04 15:08 45.05269 15.77439 37036 ft 483 kts 88°
2026-05-04 15:08 45.05389 15.86873 37028 ft 483 kts 87°
2026-05-04 15:09 45.05503 15.96374 37033 ft 483 kts 88°
2026-05-04 15:09 45.05608 16.05798 37034 ft 481 kts 88°
2026-05-04 15:10 45.05751 16.19873 37034 ft 481 kts 87°
2026-05-04 15:11 45.05876 16.34045 37023 ft 480 kts 87°
2026-05-04 15:11 45.05949 16.43513 37022 ft 479 kts 87°
2026-05-04 15:12 45.06015 16.52926 37019 ft 479 kts 87°
2026-05-04 15:12 45.06073 16.62324 37020 ft 478 kts 87°
2026-05-04 15:13 45.06123 16.71685 37022 ft 479 kts 88°
2026-05-04 15:13 45.06166 16.81097 37022 ft 477 kts 88°
2026-05-04 15:14 45.06200 16.90458 37032 ft 477 kts 88°
2026-05-04 15:14 45.06227 16.99888 37046 ft 475 kts 87°
2026-05-04 15:15 45.06246 17.09172 37046 ft 475 kts 88°
2026-05-04 15:15 45.06259 17.18565 37039 ft 476 kts 88°
2026-05-04 15:16 45.06263 17.32546 37032 ft 475 kts 88°
2026-05-04 15:17 45.06250 17.46477 37032 ft 475 kts 87°
2026-05-04 15:17 45.06219 17.60456 37035 ft 474 kts 87°
2026-05-04 15:18 45.06189 17.69689 37039 ft 474 kts 88°
2026-05-04 15:19 45.06132 17.83602 37035 ft 474 kts 88°
2026-05-04 15:19 45.06056 17.97546 37037 ft 473 kts 88°
2026-05-04 15:20 45.05996 18.06842 37039 ft 474 kts 88°
2026-05-04 15:20 45.05928 18.16184 37045 ft 472 kts 88°
2026-05-04 15:21 45.05853 18.25438 37048 ft 472 kts 88°
2026-05-04 15:22 45.05727 18.39372 37046 ft 472 kts 88°
2026-05-04 15:22 45.05584 18.53243 37045 ft 472 kts 88°
2026-05-04 15:23 45.05481 18.62398 37050 ft 471 kts 88°
2026-05-04 15:23 45.05369 18.71629 37047 ft 471 kts 88°
2026-05-04 15:24 45.05123 18.90158 37055 ft 470 kts 88°
2026-05-04 15:25 45.04989 18.99377 37055 ft 470 kts 88°
2026-05-04 15:26 45.04775 19.13178 37057 ft 470 kts 88°
2026-05-04 15:26 45.04544 19.26964 37055 ft 469 kts 88°
2026-05-04 15:27 45.04297 19.40685 37054 ft 468 kts 88°
2026-05-04 15:28 45.04036 19.54357 37056 ft 468 kts 88°
2026-05-04 15:29 45.03757 19.68107 37058 ft 468 kts 89°
2026-05-04 15:30 45.03041 20.00131 37067 ft 467 kts 88°
2026-05-04 15:31 45.02708 20.13819 37069 ft 467 kts 88°
2026-05-04 15:32 45.02119 20.36585 37074 ft 466 kts 88°
2026-05-04 15:34 45.01483 20.59379 37070 ft 467 kts 88°
2026-05-04 15:34 45.01079 20.73069 37072 ft 466 kts 89°
2026-05-04 15:35 45.00664 20.86570 37077 ft 465 kts 89°
2026-05-04 15:36 45.00229 21.00236 37075 ft 466 kts 89°
2026-05-04 15:36 44.99931 21.09268 37077 ft 466 kts 89°
2026-05-04 15:37 44.99625 21.18374 37072 ft 465 kts 89°
2026-05-04 15:37 44.99314 21.27384 37075 ft 465 kts 89°
2026-05-04 15:38 44.98996 21.36425 37075 ft 465 kts 89°
2026-05-04 15:38 44.98657 21.45429 37071 ft 464 kts 89°
2026-05-04 15:39 44.98242 21.54451 37069 ft 463 kts 90°
2026-05-04 15:40 44.97578 21.67947 37084 ft 464 kts 91°
2026-05-04 15:40 44.97128 21.77016 37092 ft 464 kts 91°
2026-05-04 15:41 44.96687 21.85836 37092 ft 463 kts 91°
2026-05-04 15:41 44.96236 21.94726 37093 ft 463 kts 91°
2026-05-04 15:42 44.95777 22.03702 37092 ft 461 kts 91°
2026-05-04 15:42 44.95316 22.12591 37090 ft 461 kts 91°
2026-05-04 15:43 44.94843 22.21606 37081 ft 462 kts 91°
2026-05-04 15:43 44.94363 22.30590 37078 ft 462 kts 91°
2026-05-04 15:44 44.93882 22.39483 37080 ft 461 kts 91°
2026-05-04 15:44 44.93388 22.48467 37079 ft 461 kts 91°
2026-05-04 15:45 44.92888 22.57419 37078 ft 460 kts 91°
2026-05-04 15:45 44.92380 22.66404 37058 ft 459 kts 92°
2026-05-04 15:46 44.91864 22.75400 37059 ft 460 kts 92°
2026-05-04 15:46 44.91340 22.84405 37044 ft 460 kts 92°
2026-05-04 15:47 44.90808 22.93438 37040 ft 460 kts 92°
2026-05-04 15:47 44.90272 23.02398 37040 ft 459 kts 92°
2026-05-04 15:48 44.89730 23.11357 37028 ft 461 kts 92°
2026-05-04 15:48 44.88901 23.24847 37040 ft 464 kts 92°
2026-05-04 15:49 44.88334 23.33897 37035 ft 464 kts 92°
2026-05-04 15:49 44.87760 23.42950 37044 ft 466 kts 93°
2026-05-04 15:50 44.87177 23.52039 37026 ft 465 kts 93°
2026-05-04 15:50 44.86538 23.61156 36902 ft 466 kts 95°
2026-05-04 15:51 44.86045 23.65649 36515 ft 461 kts 98°
2026-05-04 15:51 44.85452 23.70096 36018 ft 459 kts 100°
2026-05-04 15:51 44.84819 23.74501 35375 ft 462 kts 101°
2026-05-04 15:51 44.84172 23.78921 34629 ft 465 kts 102°
2026-05-04 15:52 44.83511 23.83452 33721 ft 469 kts 102°
2026-05-04 15:52 44.82870 23.87894 32905 ft 470 kts 102°
2026-05-04 15:52 44.82222 23.92438 32040 ft 472 kts 102°
2026-05-04 15:52 44.81585 23.96960 31166 ft 474 kts 102°
2026-05-04 15:53 44.80941 24.01561 30257 ft 475 kts 103°
2026-05-04 15:53 44.80306 24.06119 29312 ft 477 kts 102°
2026-05-04 15:53 44.79672 24.10674 28350 ft 480 kts 102°
2026-05-04 15:53 44.79031 24.15291 27350 ft 482 kts 101°
2026-05-04 15:54 44.78391 24.19889 26297 ft 485 kts 101°
2026-05-04 15:54 44.77748 24.24511 25190 ft 488 kts 100°
2026-05-04 15:54 44.77090 24.29229 24156 ft 488 kts 99°
2026-05-04 15:54 44.76443 24.33850 23493 ft 481 kts 99°
2026-05-04 15:55 44.75795 24.38459 22808 ft 475 kts 99°
2026-05-04 15:55 44.75158 24.42977 22072 ft 470 kts 99°
2026-05-04 15:55 44.74522 24.47479 21296 ft 462 kts 98°
2026-05-04 15:55 44.73904 24.51819 20552 ft 447 kts 98°
2026-05-04 15:56 44.73302 24.56036 19819 ft 433 kts 98°
2026-05-04 15:56 44.72717 24.60131 19100 ft 425 kts 98°
2026-05-04 15:56 44.72140 24.64171 18372 ft 421 kts 98°
2026-05-04 15:56 44.71566 24.68196 17639 ft 417 kts 98°
2026-05-04 15:57 44.71016 24.72049 16940 ft 413 kts 98°
2026-05-04 15:57 44.70453 24.75974 16228 ft 409 kts 98°
2026-05-04 15:57 44.69893 24.79866 15528 ft 405 kts 98°
2026-05-04 15:57 44.69338 24.83707 14850 ft 400 kts 98°
2026-05-04 15:58 44.68787 24.87511 14158 ft 396 kts 98°
2026-05-04 15:58 44.68239 24.91280 13474 ft 392 kts 97°
2026-05-04 15:58 44.67693 24.95027 12791 ft 388 kts 97°
2026-05-04 15:58 44.67157 24.98698 12117 ft 385 kts 97°
2026-05-04 15:59 44.66616 25.02398 11529 ft 378 kts 97°
2026-05-04 15:59 44.66091 25.05971 11179 ft 371 kts 97°
2026-05-04 15:59 44.65569 25.09530 11008 ft 372 kts 97°
2026-05-04 15:59 44.65048 25.13084 10849 ft 373 kts 97°
2026-05-04 16:00 44.64525 25.16640 10668 ft 373 kts 97°
2026-05-04 16:00 44.63994 25.20230 10486 ft 372 kts 97°
2026-05-04 16:00 44.63462 25.23817 10307 ft 371 kts 97°
2026-05-04 16:00 44.62940 25.27331 10046 ft 372 kts 97°
2026-05-04 16:01 44.62405 25.30922 9532 ft 367 kts 97°
2026-05-04 16:01 44.61886 25.34376 9076 ft 353 kts 97°
2026-05-04 16:01 44.61387 25.37667 8639 ft 339 kts 97°
2026-05-04 16:01 44.60913 25.40809 8241 ft 327 kts 97°
2026-05-04 16:02 44.60447 25.43907 7829 ft 316 kts 97°
2026-05-04 16:02 44.60008 25.46841 7448 ft 306 kts 97°
2026-05-04 16:02 44.59153 25.52551 6709 ft 288 kts 97°
2026-05-04 16:03 44.58743 25.55279 6350 ft 281 kts 97°
2026-05-04 16:03 44.58345 25.57919 6002 ft 274 kts 98°
2026-05-04 16:03 44.57957 25.60490 5672 ft 266 kts 97°
2026-05-04 16:03 44.57583 25.62980 5337 ft 256 kts 98°
2026-05-04 16:04 44.57214 25.65429 5020 ft 254 kts 98°
2026-05-04 16:04 44.56473 25.70283 4500 ft 254 kts 99°
2026-05-04 16:04 44.56096 25.72730 4287 ft 254 kts 99°
2026-05-04 16:05 44.55728 25.75127 4065 ft 254 kts 99°
2026-05-04 16:05 44.55358 25.77540 3769 ft 252 kts 99°
2026-05-04 16:05 44.54657 25.82349 3248 ft 250 kts 95°
2026-05-04 16:06 44.54640 25.84732 3004 ft 230 kts 84°
2026-05-04 16:06 44.55083 25.89968 2565 ft 186 kts 82°
2026-05-04 16:07 44.55271 25.92327 2246 ft 174 kts 82°
2026-05-04 16:07 44.55626 25.96861 1692 ft 148 kts 83°
2026-05-04 16:08 44.55736 25.98285 1514 ft 147 kts 83°
2026-05-04 16:08 44.56066 26.02556 985 ft 146 kts 83°
2026-05-04 16:09 44.56288 26.05393 628 ft 146 kts 83°
2026-05-04 16:09 44.56506 26.08206 325 ft 141 kts 84°
2026-05-04 16:10 44.56638 26.09973 318 ft 69 kts 85°
2026-05-04 16:11 44.56994 26.10707 318 ft 20 kts 326°
2026-05-04 16:11 44.57064 26.10539 318 ft 19 kts 279°
2026-05-04 16:12 44.57019 26.09851 318 ft 29 kts 264°
2026-05-04 16:12 44.56911 26.09315 318 ft 0 kts 173°